Showing default

GALAXY 14, 28790

Orbit data source: Space-Track

GALAXY 14, 28790 is a payload satellite owned by Panamsat (US) in GEO that was launched on Sat, 13 Aug 2005 UTC via a SOYUZ-FG launch vehicle from the Tyuratam Missile And Space Complex (TTMTR). Payloads include a variety of satellites, spacecraft, and rockets equipped with specific instruments for various scientific and technological missions. These include communications satellites like Starlink; space stations such as the ISS; scientific satellites like the Hubble; Earth observation satellites from companies like Planet Labs, Umbra, and HawkEye 360; GPS; miniature CubeSats for education and research; and military/defense satellites.

Not visible in the next 10 days
GALAXY 14 details
Identifier
28790, 2005-030A
Orbit
GEO
Last TLE update1 day ago
Origin
Flag of USPanamsat (US)
ManufacturerOSC
MissionNon-operational Commercial Communications
Bus & MotorOSC STAR 2, IHI LAE
Mass2,087 kg wet, ~850 kg dry
Launch date (UTC)
2005-08-13 (20 years ago)
Launch vehicle
SOYUZ-FG
Launch site
Tyuratam Missile And Space Complex (TTMTR)
Object type
Payload
Rocket body
Debris
Shape & HBRBox + 2 Pan, 12.6 m
Radar Cross Section13.542 m², Large (>1 m²)

Expand to show TLE details & history

TLE from 1 day ago
0 GALAXY 14
1 28790U 05030A   25046.51520439 -.00000195  00000-0  00000-0 0  9996
2 28790   3.7645  80.9848 0003972 295.4503  75.9914  0.98915207 71418
Epoch: 2025-02-15T12:21Z
Definitive object data (Epoch: 2025-02-15T12:21:53.659Z)
Latitude0.73595°
Longitude121.23717°
Altitude36,166.653 km
Speed3.061 km/s
True Right ascension06h 09m 53s
True Declination0° 44' 07"
Sunlit
Object was in daylight at TLE epoch
Visualization TLE readout
Latitude1.05751°
Longitude126.22423°
Altitude36,168.2 km
Speed3.061 km/s
Apparent Right ascension06h 13m 49s
Apparent Declination-4° 03' 27"
Sunlit
Object is in daylight
Visualization observer readout
Local Sidereal Time15:44:29
Azimuth306.929° NW
Elevation-40.824°
Doppler factor1
Orbital elements
Apogee altitude36,189.188 km
Perigee altitude36,155.386 km
Semi-major axis42,550.424 km
Eccentricity0.0003972
Inclination3.7645°
RAAN80.9848°
Arg. of periapsis295.4503°
True anomaly76.03557°
Mean anomaly75.9914°
Eccentric anomaly76.01348°
Mean motion0.24728 °/min
BSTARUnknown
Orbital period1455.85 mins
Loading historical data...
28790 neighbors
Authenticating...
Loading maneuver chart data...
Loading historical data...
Loading historical data...
Loading historical data...
Loading historical data...
Loading historical data...
Loading historical data...
Loading historical data...
Other satellites on launch #30 in the year 2005 (2005-08-13 UTC)

GALAXY 14 Visibility forecast

Observer location: undefined°, undefined

GALAXY 14 is not visible in the next 10 days
Span
Click to sort rows by Start time (UTC) header in descending order
Start Az.
Max El. time (UTC)
Max El. Az.
Max El.
End time (UTC)
End Az.
|